KLM268 SMJP-EHAM

Flight info

Callsign KLM268
Flight time 8h 20m
Altitude 35000
Route TODOL DCT BUXEX DCT VALOV DCT 13N050W DCT QUETN/M084F350 DCT 25N040W 30N035W 35N030W/M084F370 42N020W 45N015W DCT TAMEL DCT EVBAK DCT GAPLI/N0480F370 DCT GAJIT DCT ENHAQ M197 REDFA
Aircraft B77W/H-SDE1E2E3FGHIJ2J3J4J5M1RWXY/LB1D1

Departure

Time 2026-04-30 09:56
Airport Johan Adolf Pengel International Airport (SMJP)

Arrival

Time 2026-04-30 18:16
Airport Amsterdam Airport Schiphol (EHAM)
Time Latitude Longitude Altitude Speed Heading
2026-04-30 09:25 5.45526 -55.19953 70 ft 0 kts
2026-04-30 09:48 5.45518 -55.19953 70 ft 3 kts
2026-04-30 09:48 5.45497 -55.19954 61 ft 3 kts
2026-04-30 09:48 5.45482 -55.19954 60 ft 2 kts 360°
2026-04-30 09:49 5.45465 -55.19952 62 ft 3 kts 321°
2026-04-30 09:49 5.45456 -55.19938 60 ft 3 kts 276°
2026-04-30 09:49 5.45455 -55.19919 60 ft 2 kts 268°
2026-04-30 09:49 5.45456 -55.19912 60 ft 0 kts 269°
2026-04-30 09:53 5.45455 -55.19922 63 ft 3 kts 269°
2026-04-30 09:54 5.45455 -55.19981 70 ft 16 kts 269°
2026-04-30 09:54 5.45454 -55.20096 70 ft 17 kts 269°
2026-04-30 09:54 5.45451 -55.20211 70 ft 17 kts 268°
2026-04-30 09:54 5.45432 -55.20324 61 ft 17 kts 233°
2026-04-30 09:55 5.45334 -55.20337 63 ft 9 kts 170°
2026-04-30 09:55 5.45289 -55.20309 61 ft 8 kts 109°
2026-04-30 09:55 5.45286 -55.20280 61 ft 0 kts 94°
2026-04-30 09:56 5.45285 -55.20153 62 ft 55 kts 90°
2026-04-30 09:56 5.45288 -55.19452 67 ft 143 kts 90°
2026-04-30 09:56 5.45290 -55.18209 220 ft 200 kts 90°
2026-04-30 09:56 5.45572 -55.16892 1140 ft 192 kts 54°
2026-04-30 09:57 5.46580 -55.16045 1932 ft 193 kts 33°
2026-04-30 09:57 5.47790 -55.15366 2209 ft 215 kts 31°
2026-04-30 09:57 5.49194 -55.14615 2435 ft 240 kts 31°
2026-04-30 09:57 5.50711 -55.13776 2961 ft 252 kts 31°
2026-04-30 09:58 5.52247 -55.12909 3680 ft 258 kts 32°
2026-04-30 09:58 5.53831 -55.11998 4419 ft 263 kts 32°
2026-04-30 09:58 5.55414 -55.11076 5175 ft 267 kts 32°
2026-04-30 09:58 5.57038 -55.10121 5915 ft 271 kts 32°
2026-04-30 09:59 5.60330 -55.08168 7340 ft 278 kts 32°
2026-04-30 09:59 5.63684 -55.06163 8767 ft 284 kts 32°
2026-04-30 10:00 5.67124 -55.04099 10135 ft 292 kts 32°
2026-04-30 10:00 5.68913 -55.03024 10479 ft 310 kts 32°
2026-04-30 10:01 5.72859 -55.00649 10814 ft 355 kts 32°
2026-04-30 10:01 5.75051 -54.99331 11122 ft 372 kts 32°
2026-04-30 10:01 5.77312 -54.97973 11676 ft 381 kts 32°
2026-04-30 10:02 5.81895 -54.95219 13144 ft 389 kts 32°
2026-04-30 10:02 5.84239 -54.93810 13872 ft 393 kts 32°
2026-04-30 10:02 5.86610 -54.92383 14505 ft 398 kts 32°
2026-04-30 10:02 5.89007 -54.90941 15154 ft 402 kts 32°
2026-04-30 10:03 5.91396 -54.89503 15798 ft 405 kts 32°
2026-04-30 10:03 5.93839 -54.88032 16427 ft 409 kts 32°
2026-04-30 10:03 5.96270 -54.86569 17032 ft 413 kts 32°
2026-04-30 10:03 5.98757 -54.85069 17632 ft 417 kts 33°
2026-04-30 10:04 6.01156 -54.83375 18238 ft 420 kts 40°
2026-04-30 10:04 6.03338 -54.81457 18740 ft 423 kts 46°
2026-04-30 10:04 6.05352 -54.79281 19236 ft 425 kts 50°
2026-04-30 10:04 6.07325 -54.77028 19736 ft 429 kts 50°
2026-04-30 10:05 6.09283 -54.74777 20241 ft 433 kts 50°
2026-04-30 10:05 6.11287 -54.72474 20752 ft 436 kts 50°
2026-04-30 10:05 6.13275 -54.70196 21213 ft 440 kts 50°
2026-04-30 10:05 6.15320 -54.67863 21708 ft 443 kts 50°
2026-04-30 10:06 6.17354 -54.65548 22183 ft 447 kts 50°
2026-04-30 10:06 6.19443 -54.63175 22656 ft 450 kts 50°
2026-04-30 10:06 6.21509 -54.60828 23108 ft 454 kts 50°
2026-04-30 10:06 6.23603 -54.58452 23541 ft 457 kts 50°
2026-04-30 10:07 6.25720 -54.56049 23920 ft 460 kts 50°
2026-04-30 10:07 6.27843 -54.53640 24298 ft 462 kts 50°
2026-04-30 10:07 6.29997 -54.51194 24684 ft 465 kts 50°
2026-04-30 10:07 6.32125 -54.48777 25066 ft 467 kts 50°
2026-04-30 10:08 6.34307 -54.46299 25422 ft 470 kts 50°
2026-04-30 10:08 6.36462 -54.43851 25765 ft 472 kts 50°
2026-04-30 10:08 6.38627 -54.41390 26128 ft 474 kts 50°
2026-04-30 10:08 6.40830 -54.38886 26480 ft 476 kts 50°
2026-04-30 10:09 6.43019 -54.36398 26847 ft 478 kts 50°
2026-04-30 10:09 6.45235 -54.33879 27182 ft 481 kts 49°
2026-04-30 10:09 6.47475 -54.31332 27517 ft 483 kts 49°
2026-04-30 10:09 6.49687 -54.28817 27847 ft 485 kts 49°
2026-04-30 10:10 6.51913 -54.26285 28158 ft 487 kts 49°
2026-04-30 10:10 6.54173 -54.23714 28441 ft 490 kts 49°
2026-04-30 10:10 6.56421 -54.21157 28755 ft 491 kts 49°
2026-04-30 10:10 6.58700 -54.18564 28973 ft 494 kts 49°
2026-04-30 10:11 6.60993 -54.15954 29253 ft 496 kts 49°
2026-04-30 10:11 6.63265 -54.13368 29525 ft 497 kts 49°
2026-04-30 10:11 6.65541 -54.10777 29905 ft 496 kts 49°
2026-04-30 10:11 6.67832 -54.08168 30243 ft 496 kts 48°
2026-04-30 10:12 6.70126 -54.05554 30588 ft 495 kts 48°
2026-04-30 10:12 6.72387 -54.02979 30953 ft 493 kts 48°
2026-04-30 10:12 6.74671 -54.00382 31304 ft 492 kts 47°
2026-04-30 10:12 6.77007 -53.97910 31546 ft 493 kts 44°
2026-04-30 10:13 6.79442 -53.95459 31813 ft 493 kts 44°
2026-04-30 10:13 6.81896 -53.93030 32117 ft 492 kts 43°
2026-04-30 10:13 6.84353 -53.90609 32452 ft 491 kts 43°
2026-04-30 10:13 6.86762 -53.88230 32842 ft 489 kts 43°
2026-04-30 10:14 6.89189 -53.85823 33193 ft 488 kts 43°
2026-04-30 10:14 6.91587 -53.83437 33525 ft 486 kts 43°
2026-04-30 10:14 6.96407 -53.78625 34084 ft 486 kts 43°
2026-04-30 10:15 6.98792 -53.76240 34305 ft 487 kts 43°
2026-04-30 10:15 7.01187 -53.73843 34495 ft 488 kts 43°
2026-04-30 10:15 7.03607 -53.71422 34706 ft 488 kts 43°
2026-04-30 10:15 7.06013 -53.69014 34856 ft 490 kts 43°
2026-04-30 10:16 7.10872 -53.64152 34934 ft 492 kts 43°
2026-04-30 10:17 7.18076 -53.56939 34942 ft 486 kts 43°
2026-04-30 10:17 7.25266 -53.49739 34934 ft 484 kts 43°
2026-04-30 10:18 7.30022 -53.44975 34937 ft 485 kts 43°
2026-04-30 10:19 7.37226 -53.37755 34938 ft 487 kts 43°
2026-04-30 10:19 7.42039 -53.32929 34942 ft 489 kts 43°
2026-04-30 10:20 7.46841 -53.28113 34938 ft 490 kts 43°
2026-04-30 10:20 7.54118 -53.20811 34942 ft 491 kts 43°
2026-04-30 10:21 7.58950 -53.15961 34939 ft 491 kts 43°
2026-04-30 10:21 7.63804 -53.11086 34942 ft 491 kts 43°
2026-04-30 10:22 7.68628 -53.06240 34943 ft 490 kts 43°
2026-04-30 10:22 7.73444 -53.01401 34940 ft 490 kts 43°
2026-04-30 10:23 7.78254 -52.96566 34940 ft 489 kts 43°
2026-04-30 10:23 7.83078 -52.91715 34942 ft 489 kts 43°
2026-04-30 10:24 7.87910 -52.86855 34944 ft 489 kts 43°
2026-04-30 10:24 7.92725 -52.82011 34945 ft 489 kts 43°
2026-04-30 10:25 7.97533 -52.77171 34944 ft 490 kts 43°
2026-04-30 10:25 8.02367 -52.72303 34949 ft 490 kts 43°
2026-04-30 10:26 8.07191 -52.67444 34948 ft 491 kts 43°
2026-04-30 10:26 8.12016 -52.62581 34942 ft 491 kts 43°
2026-04-30 10:27 8.16839 -52.57720 34950 ft 491 kts 43°
2026-04-30 10:27 8.21699 -52.52820 34948 ft 491 kts 43°
2026-04-30 10:28 8.26532 -52.47944 34953 ft 492 kts 43°
2026-04-30 10:28 8.31363 -52.43069 34947 ft 492 kts 43°
2026-04-30 10:29 8.36195 -52.38190 34954 ft 492 kts 43°
2026-04-30 10:29 8.41021 -52.33317 34955 ft 492 kts 43°
2026-04-30 10:30 8.45862 -52.28427 34956 ft 492 kts 43°
2026-04-30 10:30 8.50698 -52.23539 34953 ft 492 kts 43°
2026-04-30 10:31 8.55535 -52.18649 34955 ft 492 kts 43°
2026-04-30 10:31 8.60382 -52.13746 34957 ft 492 kts 43°
2026-04-30 10:32 8.65220 -52.08852 34953 ft 493 kts 43°
2026-04-30 10:32 8.70069 -52.03943 34959 ft 493 kts 43°
2026-04-30 10:33 8.74910 -51.99042 34960 ft 493 kts 43°
2026-04-30 10:33 8.79762 -51.94127 34958 ft 493 kts 43°
2026-04-30 10:34 8.83787 -51.90049 34959 ft 494 kts 43°
2026-04-30 10:34 8.88658 -51.85110 34961 ft 494 kts 43°
2026-04-30 10:35 8.93510 -51.80190 34958 ft 494 kts 43°
2026-04-30 10:35 8.98345 -51.75286 34960 ft 495 kts 43°
2026-04-30 10:36 9.03207 -51.70350 34964 ft 495 kts 43°
2026-04-30 10:36 9.08075 -51.65408 34960 ft 496 kts 43°
2026-04-30 10:37 9.12932 -51.60474 34959 ft 496 kts 43°
2026-04-30 10:37 9.17798 -51.55529 34966 ft 496 kts 43°
2026-04-30 10:38 9.22673 -51.50574 34969 ft 497 kts 43°
2026-04-30 10:38 9.27556 -51.45607 34966 ft 497 kts 43°
2026-04-30 10:39 9.32427 -51.40651 34965 ft 497 kts 43°
2026-04-30 10:39 9.37323 -51.35667 34968 ft 497 kts 43°
2026-04-30 10:40 9.42174 -51.30728 34968 ft 498 kts 43°
2026-04-30 10:40 9.47081 -51.25728 34964 ft 498 kts 43°
2026-04-30 10:41 9.51939 -51.20776 34968 ft 498 kts 43°
2026-04-30 10:41 9.56824 -51.15794 34971 ft 498 kts 43°
2026-04-30 10:42 9.61724 -51.10795 34974 ft 499 kts 43°
2026-04-30 10:42 9.66925 -51.06181 34969 ft 495 kts 31°
2026-04-30 10:43 9.73022 -51.03102 34972 ft 491 kts 16°
2026-04-30 10:43 9.79551 -51.01089 34978 ft 491 kts 14°
2026-04-30 10:44 9.86105 -50.99126 34979 ft 492 kts 14°
2026-04-30 10:44 9.92665 -50.97114 34973 ft 493 kts 15°
2026-04-30 10:45 9.99213 -50.95072 34975 ft 493 kts 15°
2026-04-30 10:45 10.05789 -50.93012 34979 ft 493 kts 15°
2026-04-30 10:46 10.12348 -50.90957 34976 ft 493 kts 15°
2026-04-30 10:46 10.18896 -50.88906 34975 ft 493 kts 15°
2026-04-30 10:47 10.25454 -50.86853 34978 ft 493 kts 15°
2026-04-30 10:47 10.32041 -50.84790 34985 ft 493 kts 15°
2026-04-30 10:48 10.38567 -50.82744 34982 ft 494 kts 15°
2026-04-30 10:48 10.45163 -50.80676 34985 ft 494 kts 15°
2026-04-30 10:49 10.51721 -50.78619 34983 ft 494 kts 15°
2026-04-30 10:49 10.58297 -50.76555 34985 ft 494 kts 15°
2026-04-30 10:50 10.64816 -50.74508 34981 ft 494 kts 15°
2026-04-30 10:50 10.71413 -50.72436 34987 ft 494 kts 15°
2026-04-30 10:51 10.77965 -50.70377 34986 ft 495 kts 15°
2026-04-30 10:51 10.84572 -50.68300 34987 ft 495 kts 15°
2026-04-30 10:52 10.91148 -50.66231 34988 ft 495 kts 15°
2026-04-30 10:52 10.97710 -50.64166 34986 ft 495 kts 15°
2026-04-30 10:53 11.04306 -50.62089 34991 ft 495 kts 15°
2026-04-30 10:53 11.10894 -50.60015 34992 ft 495 kts 15°
2026-04-30 10:54 11.17461 -50.57945 34994 ft 495 kts 15°
2026-04-30 10:54 11.24046 -50.55868 34991 ft 495 kts 15°
2026-04-30 10:55 11.30621 -50.53795 34995 ft 495 kts 15°
2026-04-30 10:55 11.37206 -50.51717 34992 ft 495 kts 15°
2026-04-30 10:56 11.43798 -50.49635 34994 ft 495 kts 15°
2026-04-30 10:56 11.50377 -50.47557 34991 ft 495 kts 15°
2026-04-30 10:57 11.56980 -50.45469 34992 ft 496 kts 15°
2026-04-30 10:57 11.63544 -50.43393 35021 ft 492 kts 15°
2026-04-30 10:58 11.69982 -50.41354 34988 ft 479 kts 15°
2026-04-30 10:58 11.76350 -50.39340 34994 ft 478 kts 15°
2026-04-30 10:59 11.82668 -50.37341 34995 ft 480 kts 15°
2026-04-30 10:59 11.89091 -50.35307 34998 ft 482 kts 15°
2026-04-30 11:00 11.95501 -50.33275 34998 ft 483 kts 15°
2026-04-30 11:00 12.01893 -50.31248 34997 ft 485 kts 15°
2026-04-30 11:01 12.08376 -50.29190 34995 ft 486 kts 15°
2026-04-30 11:01 12.14832 -50.27141 34992 ft 486 kts 15°
2026-04-30 11:02 12.21258 -50.25099 34994 ft 486 kts 15°
2026-04-30 11:02 12.27724 -50.23044 35001 ft 485 kts 15°
2026-04-30 11:03 12.34143 -50.21004 35001 ft 485 kts 15°
2026-04-30 11:04 12.43814 -50.17927 35000 ft 484 kts 15°
2026-04-30 11:04 12.50252 -50.15877 35002 ft 484 kts 15°
2026-04-30 11:05 12.56686 -50.13828 35000 ft 484 kts 15°
2026-04-30 11:05 12.63084 -50.11789 35001 ft 484 kts 14°
2026-04-30 11:06 12.69527 -50.09734 35003 ft 484 kts 14°
2026-04-30 11:06 12.75962 -50.07681 35003 ft 485 kts 14°
2026-04-30 11:07 12.82376 -50.05633 35004 ft 485 kts 14°
2026-04-30 11:07 12.88830 -50.03571 35002 ft 485 kts 14°
2026-04-30 11:08 12.95254 -50.01510 35003 ft 486 kts 16°
2026-04-30 11:08 13.01442 -49.98619 35010 ft 490 kts 27°
2026-04-30 11:09 13.07066 -49.94663 35013 ft 493 kts 34°
2026-04-30 11:09 13.12525 -49.90356 35011 ft 494 kts 35°
2026-04-30 11:10 13.17965 -49.86061 35010 ft 495 kts 34°
2026-04-30 11:10 13.23432 -49.81783 35010 ft 495 kts 34°
2026-04-30 11:11 13.28921 -49.77508 35009 ft 495 kts 34°
2026-04-30 11:11 13.34407 -49.73237 35015 ft 495 kts 34°
2026-04-30 11:12 13.39876 -49.68975 35010 ft 495 kts 34°
2026-04-30 11:12 13.45385 -49.64678 35010 ft 496 kts 34°
2026-04-30 11:13 13.50873 -49.60395 35013 ft 496 kts 34°
2026-04-30 11:13 13.56331 -49.56132 35009 ft 496 kts 34°
2026-04-30 11:14 13.61837 -49.51829 35011 ft 496 kts 34°
2026-04-30 11:14 13.67335 -49.47530 35014 ft 496 kts 34°
2026-04-30 11:15 13.72792 -49.43260 35015 ft 496 kts 34°
2026-04-30 11:15 13.78280 -49.38965 35018 ft 497 kts 34°
2026-04-30 11:16 13.83784 -49.34653 35017 ft 497 kts 34°
2026-04-30 11:16 13.89296 -49.30332 35016 ft 497 kts 34°
2026-04-30 11:17 13.94803 -49.26013 35017 ft 497 kts 34°
2026-04-30 11:17 14.00280 -49.21715 35017 ft 498 kts 34°
2026-04-30 11:18 14.05800 -49.17380 35018 ft 498 kts 34°
2026-04-30 11:18 14.14050 -49.10897 35018 ft 499 kts 34°
2026-04-30 11:19 14.19560 -49.06563 35011 ft 499 kts 34°
2026-04-30 11:19 14.25085 -49.02215 35012 ft 499 kts 34°
2026-04-30 11:20 14.30601 -48.97871 35017 ft 500 kts 34°
2026-04-30 11:20 14.36117 -48.93525 35013 ft 500 kts 34°
2026-04-30 11:21 14.41628 -48.89179 35016 ft 500 kts 34°
2026-04-30 11:21 14.47182 -48.84798 35015 ft 500 kts 34°
2026-04-30 11:22 14.52710 -48.80433 35015 ft 501 kts 34°
2026-04-30 11:22 14.58227 -48.76075 35016 ft 501 kts 34°
2026-04-30 11:23 14.63749 -48.71709 35020 ft 501 kts 34°
2026-04-30 11:24 14.72083 -48.65116 35017 ft 502 kts 34°
2026-04-30 11:24 14.77610 -48.60739 35020 ft 502 kts 34°
2026-04-30 11:25 14.85925 -48.54150 35019 ft 503 kts 34°
2026-04-30 11:26 14.96087 -48.46088 35024 ft 503 kts 34°
2026-04-30 11:26 15.02555 -48.40952 35024 ft 503 kts 34°
2026-04-30 11:27 15.07183 -48.37273 35027 ft 504 kts 34°
2026-04-30 11:27 15.12769 -48.32831 35026 ft 504 kts 34°
2026-04-30 11:28 15.21091 -48.26209 35020 ft 504 kts 34°
2026-04-30 11:29 15.26629 -48.21797 35027 ft 504 kts 34°
2026-04-30 11:29 15.34999 -48.15125 35029 ft 505 kts 34°
2026-04-30 11:30 15.43350 -48.08461 35027 ft 505 kts 34°
2026-04-30 11:31 15.48908 -48.04021 35028 ft 506 kts 34°
2026-04-30 11:31 15.54477 -47.99570 35030 ft 506 kts 34°
2026-04-30 11:32 15.60080 -47.95088 35034 ft 507 kts 34°
2026-04-30 11:32 15.65645 -47.90634 35031 ft 507 kts 34°
2026-04-30 11:33 15.74019 -47.83925 35034 ft 507 kts 34°
2026-04-30 11:33 15.79614 -47.79439 35034 ft 508 kts 34°
2026-04-30 11:34 15.85180 -47.74973 35032 ft 508 kts 34°
2026-04-30 11:34 15.90797 -47.70463 35036 ft 508 kts 34°
2026-04-30 11:35 15.96358 -47.65993 35034 ft 508 kts 34°
2026-04-30 11:35 16.01974 -47.61477 35032 ft 508 kts 34°
2026-04-30 11:36 16.07548 -47.56992 35042 ft 509 kts 34°
2026-04-30 11:36 16.13155 -47.52476 35032 ft 509 kts 34°
2026-04-30 11:37 16.18744 -47.47972 35043 ft 509 kts 34°
2026-04-30 11:37 16.24325 -47.43471 35041 ft 509 kts 34°
2026-04-30 11:38 16.29941 -47.38939 35041 ft 509 kts 34°
2026-04-30 11:38 16.35515 -47.34436 35045 ft 510 kts 34°
2026-04-30 11:39 16.41138 -47.29891 35041 ft 510 kts 34°
2026-04-30 11:39 16.46729 -47.25368 35040 ft 510 kts 34°
2026-04-30 11:40 16.52357 -47.20812 35031 ft 511 kts 34°
2026-04-30 11:40 16.57948 -47.16283 35048 ft 511 kts 34°
2026-04-30 11:41 16.63571 -47.11724 35051 ft 511 kts 34°
2026-04-30 11:41 16.69176 -47.07176 35052 ft 511 kts 34°
2026-04-30 11:42 16.74770 -47.02634 35035 ft 511 kts 34°
2026-04-30 11:42 16.80378 -46.98076 35040 ft 511 kts 33°
2026-04-30 11:43 16.86007 -46.93498 35045 ft 512 kts 33°
2026-04-30 11:43 16.91611 -46.88937 35043 ft 512 kts 33°
2026-04-30 11:44 16.97209 -46.84378 35046 ft 512 kts 33°
2026-04-30 11:44 17.02847 -46.79782 35045 ft 512 kts 33°
2026-04-30 11:45 17.08432 -46.75227 35046 ft 512 kts 33°
2026-04-30 11:45 17.14058 -46.70633 35046 ft 512 kts 33°
2026-04-30 11:46 17.19685 -46.66035 35047 ft 513 kts 33°
2026-04-30 11:46 17.25290 -46.61452 35046 ft 513 kts 33°
2026-04-30 11:47 17.30929 -46.56837 35047 ft 513 kts 33°
2026-04-30 11:47 17.36528 -46.52251 35046 ft 513 kts 33°
2026-04-30 11:48 17.42173 -46.47624 35047 ft 514 kts 33°
2026-04-30 11:48 17.47794 -46.43013 35048 ft 514 kts 33°
2026-04-30 11:49 17.53438 -46.38379 35048 ft 514 kts 33°
2026-04-30 11:49 17.59033 -46.33781 35050 ft 515 kts 33°
2026-04-30 11:50 17.64676 -46.29141 35051 ft 515 kts 33°
2026-04-30 11:50 17.70327 -46.24490 35055 ft 515 kts 33°
2026-04-30 11:51 17.75934 -46.19872 35051 ft 516 kts 33°
2026-04-30 11:51 17.81567 -46.15227 35050 ft 516 kts 33°
2026-04-30 11:52 17.87211 -46.10570 35052 ft 516 kts 33°
2026-04-30 11:52 17.92862 -46.05903 35055 ft 516 kts 33°
2026-04-30 11:53 17.98498 -46.01244 35051 ft 516 kts 33°
2026-04-30 11:53 18.04157 -45.96607 35055 ft 516 kts 32°
2026-04-30 11:54 18.09867 -45.92010 35058 ft 516 kts 32°
2026-04-30 11:54 18.15540 -45.87444 35057 ft 516 kts 32°
2026-04-30 11:55 18.21226 -45.82850 35055 ft 516 kts 32°
2026-04-30 11:55 18.26910 -45.78245 35054 ft 517 kts 32°
2026-04-30 11:56 18.32612 -45.73621 35054 ft 517 kts 32°
2026-04-30 11:56 18.38310 -45.68997 35054 ft 517 kts 32°
2026-04-30 11:57 18.43980 -45.64392 35053 ft 517 kts 32°
2026-04-30 11:57 18.49680 -45.59759 35056 ft 518 kts 32°
2026-04-30 11:58 18.55398 -45.55107 35062 ft 518 kts 32°
2026-04-30 11:58 18.61073 -45.50486 35061 ft 519 kts 32°
2026-04-30 11:59 18.66799 -45.45820 35059 ft 519 kts 32°
2026-04-30 11:59 18.72531 -45.41144 35064 ft 520 kts 32°
2026-04-30 12:00 18.78232 -45.36490 35064 ft 520 kts 32°
2026-04-30 12:00 18.83939 -45.31827 35062 ft 521 kts 32°
2026-04-30 12:01 18.89678 -45.27133 35061 ft 521 kts 32°
2026-04-30 12:01 18.95404 -45.22446 35064 ft 521 kts 32°
2026-04-30 12:02 19.01125 -45.17758 35068 ft 522 kts 32°
2026-04-30 12:02 19.06854 -45.13061 35070 ft 522 kts 32°
2026-04-30 12:03 19.15480 -45.05979 35065 ft 523 kts 32°
2026-04-30 12:04 19.21215 -45.01265 35059 ft 523 kts 32°
2026-04-30 12:04 19.26944 -44.96553 35065 ft 523 kts 32°
2026-04-30 12:05 19.32704 -44.91810 35066 ft 523 kts 32°
2026-04-30 12:05 19.38447 -44.87077 35063 ft 524 kts 32°
2026-04-30 12:06 19.44168 -44.82357 35061 ft 524 kts 32°
2026-04-30 12:06 19.49921 -44.77607 35065 ft 524 kts 32°
2026-04-30 12:07 19.55672 -44.72855 35063 ft 524 kts 32°
2026-04-30 12:07 19.61408 -44.68110 35064 ft 524 kts 32°
2026-04-30 12:08 19.67156 -44.63351 35066 ft 525 kts 32°
2026-04-30 12:08 19.72923 -44.58572 35067 ft 525 kts 32°
2026-04-30 12:09 19.78664 -44.53810 35068 ft 525 kts 32°
2026-04-30 12:09 19.84430 -44.49023 35062 ft 526 kts 32°
2026-04-30 12:10 19.90200 -44.44227 35065 ft 526 kts 32°
2026-04-30 12:10 19.95950 -44.39444 35065 ft 526 kts 32°
2026-04-30 12:11 20.01697 -44.34658 35057 ft 527 kts 32°
2026-04-30 12:11 20.07476 -44.29842 35059 ft 527 kts 32°
2026-04-30 12:12 20.13256 -44.25020 35068 ft 527 kts 32°
2026-04-30 12:12 20.19007 -44.20217 35069 ft 527 kts 32°
2026-04-30 12:13 20.24756 -44.15412 35066 ft 527 kts 32°
2026-04-30 12:13 20.30542 -44.10571 35063 ft 527 kts 32°
2026-04-30 12:14 20.36297 -44.05751 35066 ft 527 kts 32°
2026-04-30 12:14 20.42054 -44.00924 35063 ft 527 kts 32°
2026-04-30 12:15 20.47839 -43.96070 35063 ft 527 kts 32°
2026-04-30 12:15 20.53606 -43.91226 35066 ft 527 kts 32°
2026-04-30 12:16 20.59367 -43.86382 35067 ft 527 kts 32°
2026-04-30 12:16 20.65122 -43.81539 35061 ft 527 kts 32°
2026-04-30 12:17 20.73753 -43.74265 35067 ft 527 kts 32°
2026-04-30 12:17 20.79491 -43.69424 35066 ft 527 kts 32°
2026-04-30 12:18 20.85265 -43.64547 35063 ft 528 kts 32°
2026-04-30 12:18 20.91013 -43.59688 35063 ft 528 kts 32°
2026-04-30 12:19 20.96785 -43.54803 35064 ft 528 kts 32°
2026-04-30 12:19 21.02538 -43.49930 35063 ft 528 kts 32°
2026-04-30 12:20 21.08266 -43.45073 35065 ft 528 kts 32°
2026-04-30 12:20 21.14027 -43.40183 35068 ft 528 kts 32°
2026-04-30 12:21 21.18816 -43.36113 35068 ft 528 kts 32°
2026-04-30 12:21 21.24592 -43.31201 35060 ft 528 kts 32°
2026-04-30 12:22 21.30312 -43.26332 35063 ft 528 kts 32°
2026-04-30 12:22 21.36082 -43.21414 35064 ft 528 kts 32°
2026-04-30 12:23 21.41819 -43.16520 35050 ft 528 kts 32°
2026-04-30 12:23 21.47567 -43.11612 35053 ft 528 kts 32°
2026-04-30 12:24 21.53301 -43.06711 35057 ft 528 kts 32°
2026-04-30 12:24 21.59066 -43.01777 35056 ft 528 kts 32°
2026-04-30 12:25 21.64776 -42.96886 35057 ft 528 kts 32°
2026-04-30 12:25 21.70534 -42.91948 35059 ft 528 kts 32°
2026-04-30 12:26 21.76288 -42.87009 35054 ft 528 kts 32°
2026-04-30 12:26 21.82027 -42.82077 35057 ft 528 kts 32°
2026-04-30 12:27 21.87739 -42.77163 35056 ft 528 kts 32°
2026-04-30 12:27 21.93483 -42.72217 35054 ft 528 kts 32°
2026-04-30 12:28 21.99216 -42.67274 35057 ft 528 kts 32°
2026-04-30 12:28 22.04975 -42.62305 35055 ft 529 kts 32°
2026-04-30 12:29 22.10690 -42.57368 35055 ft 529 kts 32°
2026-04-30 12:29 22.16444 -42.52391 35053 ft 529 kts 32°
2026-04-30 12:30 22.22162 -42.47441 35048 ft 529 kts 32°
2026-04-30 12:30 22.27891 -42.42475 35052 ft 529 kts 32°
2026-04-30 12:31 22.33627 -42.37498 35053 ft 529 kts 32°
2026-04-30 12:31 22.39388 -42.32495 35052 ft 529 kts 32°
2026-04-30 12:32 22.45099 -42.27529 35053 ft 530 kts 32°
2026-04-30 12:32 22.50852 -42.22521 35052 ft 530 kts 32°
2026-04-30 12:33 22.56567 -42.17541 35048 ft 531 kts 32°
2026-04-30 12:33 22.62315 -42.12526 35046 ft 531 kts 32°
2026-04-30 12:34 22.68067 -42.07502 35048 ft 531 kts 32°
2026-04-30 12:34 22.73834 -42.02460 35051 ft 532 kts 32°
2026-04-30 12:35 22.79567 -41.97441 35052 ft 532 kts 32°
2026-04-30 12:35 22.85331 -41.92391 35051 ft 533 kts 32°
2026-04-30 12:36 22.91099 -41.87331 35049 ft 534 kts 32°
2026-04-30 12:36 22.96867 -41.82265 35045 ft 535 kts 32°
2026-04-30 12:37 23.02653 -41.77178 35046 ft 536 kts 32°
2026-04-30 12:37 23.08451 -41.72074 35042 ft 537 kts 32°
2026-04-30 12:38 23.14255 -41.66958 35045 ft 537 kts 32°
2026-04-30 12:38 23.20056 -41.61840 35042 ft 538 kts 32°
2026-04-30 12:39 23.25844 -41.56726 35040 ft 538 kts 32°
2026-04-30 12:39 23.31644 -41.51597 35041 ft 538 kts 32°
2026-04-30 12:40 23.37472 -41.46437 35042 ft 538 kts 32°
2026-04-30 12:40 23.43252 -41.41313 35042 ft 538 kts 32°
2026-04-30 12:41 23.49051 -41.36167 35043 ft 538 kts 32°
2026-04-30 12:41 23.54855 -41.31010 35039 ft 538 kts 32°
2026-04-30 12:42 23.60655 -41.25851 35041 ft 537 kts 32°
2026-04-30 12:42 23.66453 -41.20687 35028 ft 537 kts 32°
2026-04-30 12:43 23.72198 -41.15564 35029 ft 536 kts 32°
2026-04-30 12:43 23.77980 -41.10403 35035 ft 536 kts 32°
2026-04-30 12:44 23.83733 -41.05261 35037 ft 535 kts 32°
2026-04-30 12:44 23.89505 -41.00096 35035 ft 535 kts 32°
2026-04-30 12:45 23.95230 -40.94967 35038 ft 534 kts 33°
2026-04-30 12:45 24.01000 -40.89793 35037 ft 534 kts 33°
2026-04-30 12:46 24.06709 -40.84666 35042 ft 534 kts 33°
2026-04-30 12:46 24.12437 -40.79516 35044 ft 533 kts 33°
2026-04-30 12:47 24.18199 -40.74329 35036 ft 533 kts 33°
2026-04-30 12:47 24.23921 -40.69172 35030 ft 533 kts 33°
2026-04-30 12:48 24.29616 -40.64034 35031 ft 532 kts 33°
2026-04-30 12:48 24.35348 -40.58855 35034 ft 532 kts 33°
2026-04-30 12:49 24.41025 -40.53720 35035 ft 531 kts 33°
2026-04-30 12:49 24.46736 -40.48548 35029 ft 531 kts 33°
2026-04-30 12:50 24.52411 -40.43402 35035 ft 531 kts 33°
2026-04-30 12:50 24.58113 -40.38227 35034 ft 530 kts 33°
2026-04-30 12:51 24.63787 -40.33069 35033 ft 530 kts 33°
2026-04-30 12:51 24.69462 -40.27905 35034 ft 529 kts 33°
2026-04-30 12:52 24.75147 -40.22725 35027 ft 529 kts 33°
2026-04-30 12:52 24.80795 -40.17572 35033 ft 528 kts 33°
2026-04-30 12:53 24.86440 -40.12415 35036 ft 527 kts 33°
2026-04-30 12:53 24.92061 -40.07274 35028 ft 526 kts 33°
2026-04-30 12:54 24.97698 -40.02112 35026 ft 526 kts 33°
2026-04-30 12:54 25.03313 -39.96932 35035 ft 525 kts 34°
2026-04-30 12:55 25.08852 -39.91710 35031 ft 525 kts 35°
2026-04-30 12:55 25.14398 -39.86454 35035 ft 525 kts 35°
2026-04-30 12:56 25.19953 -39.81198 35030 ft 524 kts 35°
2026-04-30 12:56 25.25460 -39.75991 35030 ft 524 kts 35°
2026-04-30 12:57 25.31006 -39.70743 35028 ft 523 kts 35°
2026-04-30 12:57 25.36520 -39.65519 35031 ft 523 kts 35°
2026-04-30 12:58 25.42022 -39.60299 35026 ft 522 kts 35°
2026-04-30 12:58 25.47526 -39.55070 35028 ft 522 kts 35°
2026-04-30 12:59 25.53036 -39.49828 35027 ft 521 kts 35°
2026-04-30 12:59 25.58540 -39.44586 35027 ft 521 kts 36°
2026-04-30 13:00 25.64034 -39.39347 35027 ft 520 kts 36°
2026-04-30 13:00 25.69484 -39.34144 35027 ft 520 kts 36°
2026-04-30 13:01 25.74966 -39.28903 35025 ft 520 kts 36°
2026-04-30 13:01 25.80440 -39.23663 35022 ft 519 kts 36°
2026-04-30 13:02 25.85900 -39.18430 35029 ft 519 kts 36°
2026-04-30 13:02 25.91374 -39.13177 35027 ft 519 kts 36°
2026-04-30 13:03 25.96811 -39.07953 35022 ft 519 kts 36°
2026-04-30 13:03 26.02281 -39.02690 35020 ft 519 kts 36°
2026-04-30 13:04 26.07754 -38.97418 35019 ft 520 kts 36°
2026-04-30 13:04 26.13209 -38.92156 35020 ft 519 kts 36°
2026-04-30 13:05 26.18655 -38.86896 35022 ft 519 kts 36°
2026-04-30 13:06 26.26813 -38.79004 35018 ft 518 kts 36°
2026-04-30 13:06 26.32256 -38.73731 35017 ft 518 kts 36°
2026-04-30 13:07 26.37698 -38.68451 35017 ft 518 kts 36°
2026-04-30 13:07 26.43102 -38.63202 35018 ft 518 kts 36°
2026-04-30 13:08 26.48529 -38.57923 35020 ft 518 kts 37°
2026-04-30 13:08 26.53969 -38.52624 35022 ft 518 kts 37°
2026-04-30 13:09 26.59375 -38.47353 35017 ft 518 kts 37°
2026-04-30 13:09 26.64814 -38.42041 35018 ft 518 kts 37°
2026-04-30 13:10 26.70237 -38.36738 35020 ft 518 kts 37°
2026-04-30 13:10 26.75630 -38.31458 35016 ft 518 kts 37°
2026-04-30 13:11 26.81048 -38.26147 35025 ft 518 kts 37°
2026-04-30 13:11 26.86462 -38.20832 35021 ft 518 kts 37°
2026-04-30 13:12 26.91890 -38.15496 35020 ft 518 kts 37°
2026-04-30 13:12 26.97284 -38.10187 35018 ft 517 kts 37°
2026-04-30 13:13 27.05366 -38.02218 35019 ft 517 kts 37°
2026-04-30 13:14 27.13475 -37.94209 35011 ft 517 kts 37°
2026-04-30 13:14 27.21562 -37.86203 35017 ft 516 kts 37°
2026-04-30 13:15 27.29646 -37.78186 35020 ft 517 kts 37°
2026-04-30 13:16 27.35016 -37.72850 35015 ft 517 kts 37°
2026-04-30 13:16 27.40391 -37.67503 35011 ft 517 kts 37°
2026-04-30 13:17 27.47575 -37.60344 35015 ft 518 kts 37°
2026-04-30 13:18 27.55670 -37.52262 35014 ft 519 kts 37°
2026-04-30 13:18 27.63767 -37.44162 35015 ft 519 kts 37°
2026-04-30 13:19 27.69173 -37.38744 35014 ft 520 kts 37°
2026-04-30 13:19 27.74572 -37.33326 35016 ft 520 kts 37°
2026-04-30 13:20 27.79992 -37.27880 35008 ft 521 kts 37°
2026-04-30 13:20 27.85397 -37.22441 35011 ft 521 kts 37°
2026-04-30 13:21 27.90808 -37.16987 35012 ft 520 kts 37°
2026-04-30 13:22 27.98874 -37.08845 35010 ft 520 kts 37°
2026-04-30 13:22 28.06986 -37.00639 35011 ft 520 kts 37°
2026-04-30 13:23 28.15068 -36.92446 35011 ft 521 kts 37°
2026-04-30 13:24 28.25852 -36.81486 35012 ft 521 kts 37°
2026-04-30 13:25 28.36666 -36.70465 35011 ft 522 kts 37°
2026-04-30 13:26 28.50171 -36.56658 35011 ft 523 kts 37°
2026-04-30 13:28 28.63653 -36.42824 35009 ft 523 kts 37°
2026-04-30 13:28 28.71767 -36.34474 35012 ft 524 kts 37°
2026-04-30 13:29 28.82541 -36.23358 35009 ft 524 kts 37°
2026-04-30 13:31 28.96038 -36.09387 34995 ft 525 kts 37°
2026-04-30 13:32 29.09534 -35.95366 35008 ft 525 kts 37°
2026-04-30 13:33 29.20334 -35.84108 35006 ft 526 kts 37°
2026-04-30 13:34 29.28452 -35.75625 35016 ft 526 kts 37°
2026-04-30 13:35 29.39273 -35.64286 35013 ft 527 kts 37°
2026-04-30 13:36 29.50067 -35.52941 35010 ft 527 kts 37°
2026-04-30 13:36 29.58172 -35.44399 35011 ft 528 kts 37°
2026-04-30 13:37 29.66292 -35.35822 35016 ft 528 kts 37°
2026-04-30 13:38 29.74381 -35.27258 35014 ft 528 kts 37°
2026-04-30 13:39 29.85195 -35.15779 35015 ft 528 kts 38°
2026-04-30 13:40 29.93273 -35.07179 35019 ft 529 kts 38°
2026-04-30 13:40 29.98673 -35.01420 35021 ft 529 kts 38°
2026-04-30 13:41 30.04239 -34.95926 35018 ft 525 kts 33°
2026-04-30 13:41 30.09959 -34.90652 35020 ft 525 kts 33°
2026-04-30 13:42 30.15666 -34.85403 35022 ft 526 kts 33°
2026-04-30 13:42 30.24192 -34.77465 35024 ft 526 kts 33°
2026-04-30 13:43 30.29882 -34.72135 35022 ft 527 kts 33°
2026-04-30 13:43 30.35577 -34.66791 35025 ft 527 kts 33°
2026-04-30 13:44 30.41286 -34.61430 35024 ft 527 kts 33°
2026-04-30 13:44 30.46971 -34.56084 35024 ft 527 kts 33°
2026-04-30 13:45 30.55504 -34.48045 35025 ft 528 kts 33°
2026-04-30 13:46 30.61207 -34.42661 35027 ft 528 kts 33°
2026-04-30 13:46 30.66863 -34.37312 35028 ft 528 kts 33°
2026-04-30 13:47 30.72581 -34.31898 35028 ft 528 kts 33°
2026-04-30 13:47 30.78250 -34.26521 35029 ft 529 kts 33°
2026-04-30 13:48 30.83967 -34.21089 35027 ft 529 kts 33°
2026-04-30 13:48 30.89639 -34.15693 35026 ft 529 kts 33°
2026-04-30 13:49 30.95336 -34.10263 35028 ft 530 kts 33°
2026-04-30 13:49 31.01039 -34.04819 35027 ft 530 kts 33°
2026-04-30 13:50 31.06743 -33.99366 35027 ft 530 kts 33°
2026-04-30 13:50 31.15268 -33.91199 35022 ft 530 kts 33°
2026-04-30 13:51 31.20972 -33.85724 35023 ft 530 kts 33°
2026-04-30 13:51 31.26675 -33.80241 35028 ft 530 kts 33°
2026-04-30 13:52 31.32366 -33.74761 35033 ft 531 kts 33°
2026-04-30 13:52 31.38058 -33.69271 35033 ft 531 kts 33°
2026-04-30 13:53 31.43769 -33.63753 35032 ft 531 kts 33°
2026-04-30 13:53 31.49470 -33.58236 35035 ft 531 kts 33°
2026-04-30 13:54 31.55164 -33.52717 35040 ft 532 kts 33°
2026-04-30 13:54 31.58001 -33.49965 35237 ft 534 kts 33°
2026-04-30 13:54 31.60841 -33.47206 35621 ft 531 kts 33°
2026-04-30 13:55 31.63700 -33.44424 36053 ft 528 kts 33°
2026-04-30 13:55 31.66516 -33.41681 36457 ft 525 kts 33°
2026-04-30 13:55 31.69310 -33.38958 36824 ft 524 kts 33°
2026-04-30 13:55 31.72141 -33.36201 36977 ft 525 kts 32°
2026-04-30 13:56 31.77787 -33.30700 37026 ft 527 kts 33°
2026-04-30 13:56 31.83384 -33.25228 37024 ft 523 kts 32°
2026-04-30 13:57 31.88964 -33.19763 37031 ft 520 kts 32°
2026-04-30 13:57 31.94516 -33.14320 37032 ft 519 kts 32°
2026-04-30 13:58 32.02848 -33.06138 37035 ft 521 kts 32°
2026-04-30 13:59 32.08411 -33.00665 37038 ft 522 kts 32°
2026-04-30 13:59 32.13969 -32.95185 37040 ft 524 kts 32°
2026-04-30 14:00 32.19583 -32.89640 37042 ft 526 kts 33°
2026-04-30 14:00 32.27979 -32.81329 37036 ft 527 kts 33°
2026-04-30 14:01 32.33608 -32.75745 37033 ft 528 kts 33°
2026-04-30 14:01 32.39223 -32.70165 37030 ft 528 kts 33°
2026-04-30 14:02 32.44845 -32.64570 37039 ft 527 kts 33°
2026-04-30 14:02 32.50450 -32.58982 37038 ft 527 kts 33°
2026-04-30 14:03 32.56059 -32.53382 37031 ft 526 kts 33°
2026-04-30 14:03 32.61652 -32.47788 37030 ft 526 kts 33°
2026-04-30 14:04 32.67235 -32.42194 37031 ft 525 kts 33°
2026-04-30 14:04 32.72812 -32.36597 37030 ft 525 kts 33°
2026-04-30 14:05 32.78392 -32.30988 37030 ft 525 kts 33°
2026-04-30 14:05 32.83920 -32.25420 37034 ft 524 kts 33°
2026-04-30 14:06 32.92292 -32.16972 37031 ft 524 kts 33°
2026-04-30 14:07 33.00591 -32.08576 37030 ft 524 kts 33°
2026-04-30 14:08 33.08911 -32.00136 37017 ft 523 kts 33°
2026-04-30 14:08 33.17219 -31.91688 37019 ft 523 kts 33°
2026-04-30 14:09 33.22747 -31.86054 37033 ft 522 kts 33°
2026-04-30 14:10 33.31035 -31.77589 37024 ft 522 kts 33°
2026-04-30 14:10 33.36553 -31.71941 37031 ft 522 kts 33°
2026-04-30 14:11 33.41132 -31.67247 37025 ft 522 kts 33°
2026-04-30 14:11 33.46654 -31.61577 37023 ft 522 kts 33°
2026-04-30 14:12 33.53056 -31.54991 37025 ft 522 kts 33°
2026-04-30 14:12 33.57662 -31.50244 37017 ft 522 kts 33°
2026-04-30 14:13 33.63169 -31.44559 37013 ft 521 kts 33°
2026-04-30 14:13 33.68662 -31.38880 37018 ft 521 kts 33°
2026-04-30 14:14 33.74148 -31.33197 37019 ft 521 kts 33°
2026-04-30 14:14 33.79629 -31.27510 37018 ft 520 kts 34°
2026-04-30 14:15 33.85102 -31.21821 37015 ft 520 kts 34°
2026-04-30 14:15 33.90577 -31.16119 37022 ft 519 kts 34°
2026-04-30 14:16 33.96035 -31.10426 37005 ft 519 kts 34°
2026-04-30 14:16 34.01485 -31.04731 37007 ft 519 kts 34°
2026-04-30 14:17 34.06934 -30.99027 37006 ft 519 kts 34°
2026-04-30 14:17 34.12376 -30.93321 37008 ft 518 kts 34°
2026-04-30 14:18 34.17815 -30.87607 37008 ft 519 kts 34°
2026-04-30 14:18 34.25940 -30.79053 37016 ft 519 kts 34°
2026-04-30 14:19 34.34099 -30.70440 37000 ft 519 kts 34°
2026-04-30 14:20 34.39535 -30.64689 37008 ft 519 kts 34°
2026-04-30 14:20 34.47694 -30.56037 37003 ft 520 kts 34°
2026-04-30 14:21 34.53132 -30.50257 37003 ft 520 kts 34°
2026-04-30 14:22 34.61299 -30.41557 37000 ft 521 kts 34°
2026-04-30 14:22 34.69472 -30.32828 36999 ft 522 kts 34°
2026-04-30 14:23 34.80367 -30.21152 36991 ft 523 kts 34°
2026-04-30 14:24 34.88546 -30.12359 36992 ft 523 kts 34°
2026-04-30 14:25 34.99448 -30.00597 36985 ft 524 kts 34°
2026-04-30 14:26 35.07291 -29.91181 36966 ft 529 kts 39°
2026-04-30 14:27 35.15012 -29.81545 36977 ft 529 kts 38°
2026-04-30 14:27 35.20173 -29.75144 36974 ft 529 kts 38°
2026-04-30 14:28 35.27936 -29.65536 36973 ft 529 kts 38°
2026-04-30 14:28 35.33109 -29.59119 36974 ft 530 kts 38°
2026-04-30 14:29 35.42583 -29.47327 36970 ft 530 kts 38°
2026-04-30 14:31 35.56371 -29.30086 36962 ft 530 kts 38°
2026-04-30 14:31 35.64076 -29.20413 36948 ft 530 kts 38°
2026-04-30 14:32 35.71805 -29.10681 36957 ft 530 kts 38°
2026-04-30 14:33 35.76949 -29.04189 36954 ft 530 kts 38°
2026-04-30 14:33 35.84661 -28.94432 36946 ft 530 kts 39°
2026-04-30 14:34 35.89799 -28.87914 36952 ft 530 kts 39°
2026-04-30 14:34 35.94929 -28.81394 36937 ft 530 kts 39°
2026-04-30 14:35 36.02620 -28.71594 36936 ft 529 kts 39°
2026-04-30 14:36 36.07741 -28.65054 36934 ft 529 kts 39°
2026-04-30 14:36 36.12855 -28.58509 36933 ft 529 kts 39°
2026-04-30 14:37 36.17967 -28.51954 36927 ft 529 kts 39°
2026-04-30 14:37 36.23077 -28.45386 36932 ft 529 kts 39°
2026-04-30 14:38 36.28180 -28.38816 36928 ft 529 kts 39°
2026-04-30 14:38 36.33285 -28.32230 36933 ft 529 kts 39°
2026-04-30 14:39 36.38383 -28.25639 36920 ft 529 kts 39°
2026-04-30 14:39 36.43476 -28.19042 36905 ft 529 kts 39°
2026-04-30 14:40 36.51108 -28.09131 36913 ft 529 kts 39°
2026-04-30 14:40 36.56152 -28.02562 36908 ft 529 kts 39°
2026-04-30 14:41 36.61232 -27.95935 36909 ft 529 kts 40°
2026-04-30 14:41 36.66303 -27.89306 36903 ft 529 kts 40°
2026-04-30 14:42 36.71371 -27.82667 36902 ft 529 kts 40°
2026-04-30 14:42 36.76436 -27.76019 36901 ft 529 kts 40°
2026-04-30 14:43 36.81493 -27.69367 36898 ft 528 kts 40°
2026-04-30 14:43 36.86548 -27.62703 36893 ft 528 kts 40°
2026-04-30 14:44 36.91595 -27.56037 36894 ft 528 kts 40°
2026-04-30 14:44 36.96633 -27.49370 36890 ft 527 kts 40°
2026-04-30 14:45 37.01661 -27.42702 36887 ft 526 kts 40°
2026-04-30 14:45 37.06642 -27.36082 36889 ft 525 kts 40°
2026-04-30 14:46 37.11645 -27.29419 36885 ft 524 kts 40°
2026-04-30 14:46 37.15799 -27.23876 36868 ft 523 kts 40°
2026-04-30 14:47 37.21612 -27.16104 36876 ft 522 kts 40°
2026-04-30 14:47 37.26571 -27.09459 36885 ft 521 kts 40°
2026-04-30 14:48 37.31515 -27.02820 36879 ft 520 kts 41°
2026-04-30 14:48 37.36450 -26.96182 36882 ft 519 kts 41°
2026-04-30 14:49 37.41347 -26.89579 36880 ft 519 kts 41°
2026-04-30 14:49 37.46268 -26.82931 36879 ft 519 kts 41°
2026-04-30 14:50 37.53659 -26.72920 36877 ft 520 kts 41°
2026-04-30 14:51 37.61049 -26.62879 36874 ft 521 kts 41°
2026-04-30 14:52 37.68408 -26.52848 36873 ft 522 kts 41°
2026-04-30 14:52 37.75813 -26.42723 36871 ft 523 kts 42°
2026-04-30 14:53 37.83217 -26.32566 36873 ft 524 kts 42°
2026-04-30 14:54 37.93083 -26.18982 36867 ft 524 kts 43°
2026-04-30 14:55 38.00466 -26.08777 36865 ft 523 kts 43°
2026-04-30 14:56 38.10258 -25.95194 36869 ft 522 kts 43°
2026-04-30 14:57 38.17610 -25.84957 36858 ft 522 kts 44°
2026-04-30 14:58 38.27367 -25.71321 36850 ft 521 kts 44°
2026-04-30 14:58 38.33852 -25.62225 36848 ft 521 kts 44°
2026-04-30 15:00 38.46789 -25.44000 36845 ft 520 kts 45°
2026-04-30 15:01 38.55696 -25.31391 36839 ft 520 kts 45°
2026-04-30 15:01 38.62929 -25.21115 36837 ft 520 kts 45°
2026-04-30 15:02 38.67758 -25.14235 36838 ft 519 kts 45°
2026-04-30 15:03 38.79800 -24.97014 36834 ft 519 kts 46°
2026-04-30 15:04 38.91806 -24.79750 36828 ft 518 kts 46°
2026-04-30 15:06 39.03728 -24.62513 36828 ft 517 kts 46°
2026-04-30 15:07 39.13256 -24.48667 36827 ft 516 kts 47°
2026-04-30 15:08 39.22750 -24.34811 36818 ft 515 kts 47°
2026-04-30 15:09 39.34575 -24.17466 36821 ft 514 kts 47°
2026-04-30 15:10 39.43964 -24.03626 36825 ft 513 kts 47°
2026-04-30 15:11 39.58020 -23.82789 36810 ft 511 kts 48°
2026-04-30 15:13 39.69672 -23.65410 36822 ft 510 kts 49°
2026-04-30 15:14 39.85866 -23.41094 36837 ft 508 kts 49°
2026-04-30 15:17 40.06600 -23.09680 36842 ft 507 kts 49°
2026-04-30 15:19 40.24874 -22.81724 36850 ft 505 kts 50°
2026-04-30 17:39 51.57104 -0.89008 37159 ft 472 kts 78°
2026-04-30 17:42 51.65160 -0.37779 37279 ft 473 kts 78°
2026-04-30 17:43 51.69241 -0.12142 37275 ft 472 kts 77°
2026-04-30 17:44 51.74022 0.18646 37209 ft 471 kts 78°
2026-04-30 17:47 51.81031 0.64726 37223 ft 469 kts 79°
2026-04-30 17:48 51.86994 1.00382 37236 ft 470 kts 76°
2026-04-30 17:50 51.94304 1.40922 37241 ft 469 kts 76°
2026-04-30 17:51 51.97003 1.56225 36504 ft 479 kts 76°
2026-04-30 17:52 51.99660 1.71499 34156 ft 463 kts 78°
2026-04-30 17:53 52.03601 1.96983 29933 ft 461 kts 78°
2026-04-30 17:54 52.06655 2.16820 27322 ft 444 kts 78°
2026-04-30 17:55 52.09564 2.35941 24913 ft 431 kts 78°
2026-04-30 17:56 52.13217 2.54222 22680 ft 419 kts 61°
2026-04-30 17:57 52.16045 2.67439 20814 ft 405 kts 88°
2026-04-30 17:58 52.16397 2.80676 19246 ft 391 kts 89°
2026-04-30 17:59 52.16933 2.98219 17237 ft 381 kts 89°
2026-04-30 18:00 52.17436 3.15115 15250 ft 366 kts 89°
2026-04-30 18:00 52.17786 3.27393 13807 ft 357 kts 90°
2026-04-30 18:01 52.18008 3.35406 12776 ft 351 kts 90°
2026-04-30 18:02 52.18322 3.47148 11283 ft 343 kts 90°
2026-04-30 18:02 52.18601 3.57686 9767 ft 294 kts 91°
2026-04-30 18:03 52.18836 3.67063 8256 ft 259 kts 91°
2026-04-30 18:04 52.19047 3.76045 7734 ft 266 kts 91°
2026-04-30 18:05 52.19279 3.86005 7155 ft 261 kts 91°
2026-04-30 18:06 52.19515 3.96496 6528 ft 257 kts 91°
2026-04-30 18:07 52.19765 4.08057 5837 ft 254 kts 92°
2026-04-30 18:08 52.19944 4.16687 5330 ft 254 kts 92°
2026-04-30 18:09 52.20139 4.26209 4388 ft 216 kts 93°
2026-04-30 18:10 52.20317 4.35803 4051 ft 223 kts 93°
2026-04-30 18:11 52.20494 4.45077 2912 ft 184 kts 92°
2026-04-30 18:11 52.20604 4.50806 2094 ft 162 kts 87°
2026-04-30 18:12 52.22032 4.55792 1998 ft 168 kts 67°
2026-04-30 18:13 52.23251 4.59023 1997 ft 166 kts 65°
2026-04-30 18:13 52.25039 4.63662 1449 ft 147 kts 63°
2026-04-30 18:14 52.26068 4.66336 1084 ft 125 kts 64°
2026-04-30 18:15 52.27493 4.70030 584 ft 130 kts 64°
2026-04-30 18:15 52.28943 4.73800 39 ft 132 kts 62°
2026-04-30 18:16 52.29733 4.75866 3 ft 65 kts 58°
2026-04-30 18:16 52.30119 4.76619 4 ft 26 kts 27°
2026-04-30 18:17 52.30219 4.76704 4 ft 12 kts 27°
2026-04-30 18:17 52.30291 4.76777 4 ft 16 kts 47°
2026-04-30 18:17 52.30435 4.77144 4 ft 19 kts 58°
2026-04-30 18:18 52.30506 4.77331 4 ft 19 kts 58°
2026-04-30 18:18 52.30580 4.77516 4 ft 19 kts 50°
2026-04-30 18:18 52.30704 4.77591 4 ft 19 kts
2026-04-30 18:18 52.30837 4.77605 4 ft 19 kts
2026-04-30 18:19 52.30972 4.77618 4 ft 19 kts
2026-04-30 18:19 52.31107 4.77629 4 ft 19 kts
2026-04-30 18:19 52.31241 4.77641 4 ft 19 kts
2026-04-30 18:19 52.31376 4.77653 4 ft 19 kts
2026-04-30 18:20 52.31498 4.77576 4 ft 19 kts 320°
2026-04-30 18:20 52.31572 4.77398 4 ft 20 kts 281°
2026-04-30 18:20 52.31571 4.77172 4 ft 20 kts 267°
2026-04-30 18:20 52.31564 4.76949 4 ft 20 kts 267°
2026-04-30 18:21 52.31555 4.76721 4 ft 20 kts 266°
2026-04-30 18:21 52.31549 4.76529 4 ft 14 kts 267°
2026-04-30 18:21 52.31543 4.76369 4 ft 15 kts 266°
2026-04-30 18:21 52.31537 4.76199 4 ft 16 kts 266°
2026-04-30 18:22 52.31531 4.76026 4 ft 12 kts 266°
2026-04-30 18:22 52.31394 4.75926 4 ft 13 kts 177°
2026-04-30 18:22 52.31302 4.75933 4 ft 13 kts 177°
2026-04-30 18:23 52.31216 4.75948 4 ft 7 kts 152°
2026-04-30 18:23 52.31201 4.76030 4 ft 7 kts 91°
2026-04-30 18:23 52.31201 4.76080 4 ft 3 kts 89°
2026-04-30 18:23 52.31201 4.76092 4 ft 1 kts 89°
2026-04-30 18:24 52.31202 4.76106 4 ft 0 kts 89°